Regional Weather Roundup
Issued by NWS

Home | Current Version | Previous Version | Graphics & Text | Print | Product List | Glossary On
Versions: 1 2 3 4 5 6 7 8 9 10 11 12 13 14 15 16 17 18 19 20 21 22 23 24 25 26 27 28 29 30 31 32 33 34 35 36 37 38 39 40 41 42 43 44 45 46 47 48 49 50
000
ASUS45 KBOU 250507
RWRCO

WEATHER ROUNDUP FOR COLORADO
NATIONAL WEATHER SERVICE DENVER/BOULDER CO
1100 PM MDT FRI APR 24 2015

NOTE: "FAIR" INDICATES FEW OR NO CLOUDS BELOW 12000 FEET WITH NO
SIGNIFICANT WEATHER AND/OR OBSTRUCTIONS TO VISIBILITY.

COZ001>005-013-030-031-250600-
...NORTHWEST COLORADO...

CITY           SKY/WX    TMP DP  RH WIND       PRES   REMARKS
CRAIG          CLOUDY    45  33  63 CALM      29.77S
HAYDEN         MOCLDY    45  30  57 SE10      29.79S
MEEKER         CLOUDY    47  31  53 N8        29.79S
MOUNT WERNER   NOT AVBL
STEAMBOAT SPGS PTCLDY    39  32  74 CALM      29.81R
WALDEN         MOCLDY    34  32  93 E8        29.84S WCI  27
$$

COZ006>008-011-250600-
...WEST CENTRAL VALLEYS...

CITY           SKY/WX    TMP DP  RH WIND       PRES   REMARKS
GRAND JUNCTION MOCLDY    53  32  44 SE14      29.78R
MONTROSE       CLEAR     44  34  67 E3        29.85S
EAGLE          PTCLDY    37  30  75 E7        29.87R
RIFLE          PTCLDY    43  32  65 CALM      29.81R
DELTA          PTCLDY    49  33  54 MISG      29.84R
NUCLA          CLOUDY    48  28  46 E5        29.88S
$$

COZ017>023-064>068-250600-
...SOUTHWEST COLORADO...

CITY           SKY/WX    TMP DP  RH WIND       PRES   REMARKS
DURANGO        LGT RAIN  38  32  79 NW3       29.96R
CORTEZ         CLOUDY    52  34  50 S12G22    29.90R
PAGOSA SPRINGS PTCLDY    33  30  90 CALM      29.99R
TELLURIDE      PTCLDY    34  29  83 SE7       29.99S WCI  27
WOLF CREEK PAS NOT AVBL
$$

COZ009-010-012-014-032>034-037-058>063-250600-
...CENTRAL COLORADO...

CITY           SKY/WX    TMP DP  RH WIND       PRES   REMARKS
ASPEN          PTCLDY    33  26  75 S6        29.88R WCI  28
BUENA VISTA    CLEAR     41  23  47 W17G26    29.86S
COPPER MTN     PTCLDY    28  18  64 W16G24    29.98R WCI  17
BERTHOUD PASS  MOCLDY    21  12  68 NW29      29.95S WCI   3
COTTONWOOD PAS CLEAR     37  21  52 W23G38    29.89S
GUNNISON       CLEAR     34  25  69 N6        29.95R WCI  29
KREMMLING      CLOUDY    41  27  56 CALM      29.86S
LEADVILLE      CLEAR     30  19  63 N7        29.92S WCI  23
MONARCH PASS   PTCLDY    23  19  86 MISG      30.07S
SALIDA         CLEAR     44  25  46 SW9G16    29.92S
SUNLIGHT       PTCLDY    30  27  86 CALM      29.98S
WILKERSON PASS PTCLDY    28  18  64 W12G24    29.96R WCI  18
$$

COZ069>075-250600-
...SAN LUIS VALLEY/SANGRE DE CRISTO MOUNTAINS...

CITY           SKY/WX    TMP DP  RH WIND       PRES   REMARKS
ALAMOSA        CLEAR     32  18  56 SW7       29.91R WCI  26
LA VETA PASS   CLEAR     32  19  59 S14G23    29.91S WCI  22
SAGUACHE       CLEAR     36  25  64 W12       29.91R
$$

COZ035-036-038>040-250600-
...NORTHERN COLORADO FRONT RANGE...

CITY           SKY/WX    TMP DP  RH WIND       PRES   REMARKS
DENVER INTL AP PTCLDY    48  33  56 SW12      29.70S
DMNS CITY PARK   N/A     49  33  54 S6G12     29.70F
AURORA         MOCLDY    45  32  59 S8        29.72F
FRONT RANGE AP NOT AVBL
ERIE MUNI ARPT MOCLDY    46  33  60 NE3       29.69S
BOULDER MUN AP PTCLDY    50  30  46 CALM      29.69S
CENTENNIAL     PTCLDY    44  30  57 SW5       29.72F
BROOMFIELD     NOT AVBL
FORT COLLINS   MOCLDY    52  34  50 N6        29.70F
LONGMONT       MOCLDY    53  33  47 SW3       29.71R
$$

COZ041-046-047-076>085-087-088-250600-
...PIKES PEAK/PALMER DIVIDE AND SOUTHERN FOOTHILLS...

CITY           SKY/WX    TMP DP  RH WIND       PRES   REMARKS
COLO. SPRINGS  PTCLDY    41  31  67 CALM      29.77R
A. F. ACADEMY  PTCLDY    46  24  43 VRB1      29.76R
ELLICOTT       PTCLDY     1  32 100 NW5       29.74S WCI  -9
FALCON         PTCLDY    43  28  53 W14       29.78S
FORT CARSON    PTCLDY    44  34  68 CALM      29.74R
LIMON          MOCLDY    41  38  89 W8        29.70R
MONUMENT HILL  MOCLDY    36  30  80 SW8       29.77S
TRINIDAD       CLEAR     43  24  47 W9        29.77R
$$

COZ042>045-048>051-090-091-250600-
...NORTHEAST COLORADO...

CITY           SKY/WX    TMP DP  RH WIND       PRES   REMARKS
GREELEY ARPT   PTCLDY    52  34  50 N18       29.68F
AKRON          MOCLDY    44  36  73 W12       29.65R
BURLINGTON     MOCLDY    49  41  74 W13       29.63R
WRAY           CLOUDY    49  42  76 W9        29.60S
STERLING       MOCLDY    50  39  66 NW9       29.62R
HOLYOKE        CLOUDY    48  41  76 NW6       29.60S
FORT MORGAN    MOCLDY    49  35  59 NW12      29.67S
$$

COZ086-089-092>099-250600-
...SOUTHEAST COLORADO...

CITY           SKY/WX    TMP DP  RH WIND       PRES   REMARKS
PUEBLO         PTCLDY    49  37  63 NW6       29.72R
LA JUNTA       PTCLDY    52  36  54 SW5       29.68S
LAMAR          MOCLDY    50  42  74 SW12      29.61F
SPRINGFIELD      N/A     53  37  54 N15       29.68R
$$



USA.gov is the U.S. government's official web portal to all federal, state and local government web resources and services.